Le nostre stazioni meteo in Italia

Pubblicità
Il mio iltempo24.it
Messina, Italia (16420): Temperatura & dewpoint: 14.08.2017 05:00:00 - 20.08.2017 05:00:00 (CEST)Messina, Italia (16420): velocità del vento: 14.08.2017 05:00:00 - 20.08.2017 05:00:00 (CEST)Messina, Italia (16420): direzione del vento: 14.08.2017 05:00:00 - 20.08.2017 05:00:00 (CEST)Messina, Italia (16420): reduced air pressure: 14.08.2017 05:00:00 - 20.08.2017 05:00:00 (CEST)Messina, Italia (16420): visibility: 14.08.2017 05:00:00 - 20.08.2017 05:00:00 (CEST)Messina, Italia (16420): ore di luce: 14.08.2017 05:00:00 - 20.08.2017 05:00:00 (CEST)
Data & Tempo tt [°C] td [°C] ff [km/h] ff [kn] dd ppp [hPa] vv [km] sd [min]
20.08.2017 05:00:00 27,0 19,9 8 4 NNO 1014,0 12 -
20.08.2017 04:00:00 26,8 18,4 8 4 NNE 1014,2 12 -
20.08.2017 03:00:00 27,0 15,4 8 4 NE 1014,3 12 -
20.08.2017 02:00:00 27,6 18,9 5 3 N 1014,6 12 -
20.08.2017 01:00:00 27,6 12,8 5 3 NNE 1014,8 12 -
20.08.2017 00:00:00 28,0 13,2 9 5 N 1014,8 12 -
19.08.2017 23:00:00 28,4 12,3 8 4 N 1014,8 12 -
19.08.2017 22:00:00 29,0 14,4 8 4 NNE 1014,6 12 -
19.08.2017 21:00:00 29,6 15,0 5 3 NNE 1014,4 15 -
19.08.2017 20:00:00 30,0 16,1 5 3 NE 1014,3 20 0
19.08.2017 19:00:00 30,2 20,5 16 9 ENE 1014,3 20 60
19.08.2017 18:00:00 30,6 24,5 16 9 NE 1014,3 20 60
19.08.2017 17:00:00 30,6 23,3 18 10 NE 1014,5 20 60
19.08.2017 16:00:00 30,4 22,8 15 8 ENE 1014,9 20 60
19.08.2017 15:00:00 30,4 22,3 11 6 E 1015,1 20 60
19.08.2017 14:00:00 30,6 21,4 13 7 ENE 1015,1 18 60
19.08.2017 13:00:00 31,0 23,1 11 6 ENE 1015,2 18 60
19.08.2017 12:00:00 30,0 23,0 15 8 ENE 1015,2 18 60
19.08.2017 11:00:00 29,4 24,3 15 8 ENE 1015,2 18 60
19.08.2017 10:00:00 29,0 23,4 18 10 ENE 1015,1 18 60
19.08.2017 09:00:00 28,0 23,8 13 7 NE 1014,9 18 60
19.08.2017 08:00:00 26,6 22,2 13 7 ENE 1014,8 20 60
19.08.2017 07:00:00 26,2 22,3 9 5 NNE 1014,4 18 6
19.08.2017 06:00:00 26,4 21,6 11 6 NE 1014,4 15 -
19.08.2017 05:00:00 26,6 21,4 4 2 NE 1014,1 15 -
19.08.2017 04:00:00 27,2 19,5 8 4 NE 1014,4 15 -
19.08.2017 03:00:00 27,2 20,8 9 5 NNE 1014,9 15 -
19.08.2017 02:00:00 27,0 18,8 8 4 NE 1015,0 15 -
19.08.2017 01:00:00 27,8 17,0 8 4 NNE 1015,2 15 -
19.08.2017 00:00:00 28,0 15,0 9 5 NNO 1015,2 15 -
18.08.2017 23:00:00 28,0 15,7 8 4 NNO 1015,2 15 -
18.08.2017 22:00:00 28,2 17,7 8 4 N 1015,2 15 -
18.08.2017 21:00:00 28,4 20,4 8 4 NE 1015,0 15 -
18.08.2017 20:00:00 28,4 25,0 11 6 N 1014,9 20 0
18.08.2017 19:00:00 29,4 25,2 11 6 NE 1015,0 20 60
18.08.2017 18:00:00 30,4 25,0 15 8 NE 1014,9 20 60
18.08.2017 17:00:00 30,8 25,2 16 9 NE 1015,1 20 60
18.08.2017 16:00:00 31,0 24,4 18 10 ONO 1015,3 20 60
18.08.2017 15:00:00 30,6 23,5 18 10 NE 1015,4 20 60
18.08.2017 14:00:00 30,6 24,5 22 12 NNE 1015,8 20 60
18.08.2017 13:00:00 30,4 23,8 22 12 ENE 1015,9 20 60
18.08.2017 12:00:00 30,0 23,9 16 9 NE 1016,3 20 60
18.08.2017 11:00:00 29,4 23,6 22 12 NE 1016,4 20 60
18.08.2017 10:00:00 29,4 23,8 16 9 NE 1015,8 20 60
18.08.2017 09:00:00 28,4 17,6 13 7 NO 1015,6 20 60
18.08.2017 08:00:00 27,0 19,6 13 7 NE 1015,2 20 54
18.08.2017 07:00:00 26,2 22,5 8 4 NNE 1015,2 18 0
18.08.2017 06:00:00 26,2 22,9 11 6 NNE 1015,2 16 -
18.08.2017 05:00:00 26,4 23,7 9 5 NNE 1015,2 15 -
18.08.2017 04:00:00 26,4 23,7 13 7 NE 1015,2 15 -
18.08.2017 03:00:00 27,0 23,9 11 6 NNE 1015,2 15 -
18.08.2017 02:00:00 27,0 22,4 13 7 NE 1015,2 15 -
18.08.2017 01:00:00 27,0 18,6 15 8 NNE 1015,2 15 -
18.08.2017 00:00:00 27,0 21,5 13 7 NNE 1015,2 15 -
17.08.2017 23:00:00 27,0 24,1 13 7 NNE 1015,2 15 -
17.08.2017 22:00:00 27,2 24,3 9 5 N 1015,3 15 -
17.08.2017 21:00:00 27,8 24,2 11 6 NNE 1015,2 15 -
17.08.2017 20:00:00 28,4 23,5 13 7 NE 1014,5 20 12
17.08.2017 19:00:00 29,6 22,3 11 6 N 1014,5 20 60
17.08.2017 18:00:00 30,4 20,3 11 6 N 1014,3 20 60
17.08.2017 17:00:00 31,8 15,3 13 7 NNE 1014,4 20 60
17.08.2017 16:00:00 32,2 16,9 16 9 NNE 1014,6 20 60
17.08.2017 15:00:00 31,0 17,7 15 8 NO 1014,8 20 60
17.08.2017 14:00:00 31,2 20,8 11 6 NO 1015,1 20 60
17.08.2017 13:00:00 30,4 20,9 13 7 NO 1015,2 20 60
17.08.2017 12:00:00 30,0 20,3 13 7 NO 1015,2 20 60
17.08.2017 11:00:00 29,0 22,5 11 6 NNO 1015,2 20 60
17.08.2017 10:00:00 28,2 22,0 11 6 ONO 1015,2 20 60
17.08.2017 09:00:00 27,2 22,6 11 6 NE 1015,2 20 60
17.08.2017 08:00:00 26,2 22,5 11 6 NE 1015,2 20 48
17.08.2017 07:00:00 26,0 22,5 16 9 NE 1015,0 20 0
17.08.2017 06:00:00 26,0 21,4 11 6 NE 1014,9 16 -
17.08.2017 05:00:00 26,0 18,4 11 6 NNE 1014,9 14 -
17.08.2017 04:00:00 26,0 20,8 9 5 NNE 1015,1 14 -
17.08.2017 03:00:00 26,0 21,2 9 5 N 1015,3 14 -
17.08.2017 02:00:00 26,2 22,9 9 5 N 1015,4 14 -
17.08.2017 01:00:00 26,4 23,1 9 5 NNE 1016,0 14 -
17.08.2017 00:00:00 27,0 23,7 15 8 NE 1016,1 14 -
16.08.2017 23:00:00 27,0 23,7 9 5 N 1016,1 14 -
16.08.2017 22:00:00 27,2 23,9 9 5 NNE 1016,1 14 -
16.08.2017 21:00:00 27,8 24,0 11 6 NNE 1015,5 14 -
16.08.2017 20:00:00 28,0 23,8 11 6 N 1015,2 20 0
16.08.2017 19:00:00 29,0 23,0 11 6 NNE 1015,2 25 42
16.08.2017 18:00:00 30,0 22,7 13 7 N 1015,2 25 60
16.08.2017 17:00:00 30,8 19,2 13 7 N 1015,1 25 60
16.08.2017 16:00:00 31,0 17,7 15 8 NNE 1015,3 25 60
16.08.2017 15:00:00 30,4 18,8 15 8 N 1015,8 25 60
16.08.2017 14:00:00 31,0 15,8 16 9 NNE 1016,1 25 60
16.08.2017 13:00:00 29,8 15,9 13 7 NO 1016,4 25 60
16.08.2017 12:00:00 29,8 17,6 13 7 NNE 1017,0 25 60
16.08.2017 11:00:00 29,2 17,1 13 7 NNE 1016,9 20 60
16.08.2017 10:00:00 29,0 18,2 13 7 NE 1016,8 20 60
16.08.2017 09:00:00 27,6 20,2 11 6 NE 1016,7 20 60
16.08.2017 08:00:00 25,6 18,8 11 6 NE 1016,7 20 60
16.08.2017 07:00:00 25,4 20,4 9 5 NNE 1016,5 20 0
16.08.2017 06:00:00 25,4 18,8 13 7 N 1016,5 15 -
16.08.2017 05:00:00 25,4 18,6 11 6 N 1016,7 12 -
16.08.2017 04:00:00 25,4 18,4 11 6 NNO 1016,7 12 -
16.08.2017 03:00:00 25,6 17,5 9 5 NO 1017,1 12 -
16.08.2017 02:00:00 25,8 18,7 11 6 NO 1017,2 12 -
16.08.2017 01:00:00 25,4 18,1 13 7 NO 1017,8 12 -
16.08.2017 00:00:00 25,4 20,9 11 6 NNO 1018,0 12 -
15.08.2017 23:00:00 26,0 23,3 11 6 NNO 1018,1 12 -
15.08.2017 22:00:00 26,4 23,9 11 6 N 1018,0 12 -
15.08.2017 21:00:00 27,0 23,9 9 5 NNE 1017,9 15 -
15.08.2017 20:00:00 27,0 22,8 13 7 NE 1017,4 20 0
15.08.2017 19:00:00 28,4 22,6 11 6 NE 1017,6 20 60
15.08.2017 18:00:00 29,8 22,2 13 7 NE 1018,0 20 60
15.08.2017 17:00:00 30,2 20,2 13 7 NE 1018,1 20 60
15.08.2017 16:00:00 30,8 19,2 9 5 NE 1018,1 20 60
15.08.2017 15:00:00 30,4 17,8 11 6 NNE 1018,2 20 60
15.08.2017 14:00:00 29,4 17,6 16 9 NNO 1018,4 20 60
15.08.2017 13:00:00 29,6 17,1 15 8 N 1018,4 20 60
15.08.2017 12:00:00 29,0 19,0 13 7 N 1018,4 20 60
15.08.2017 11:00:00 28,0 19,5 15 8 NNO 1018,4 20 60
15.08.2017 10:00:00 27,8 20,6 11 6 N 1018,2 20 60
15.08.2017 09:00:00 26,2 21,2 15 8 N 1018,3 20 60
15.08.2017 08:00:00 25,4 20,9 11 6 ENE 1018,5 25 60
15.08.2017 07:00:00 25,2 20,9 8 4 N 1018,5 25 12
15.08.2017 06:00:00 25,4 21,1 8 4 NNE 1018,3 20 -
15.08.2017 05:00:00 25,6 21,1 9 5 NE 1018,3 20 -
15.08.2017 04:00:00 25,6 20,6 8 4 NNE 1018,4 25 -
15.08.2017 03:00:00 25,6 20,0 9 5 NNE 1018,4 25 -
15.08.2017 02:00:00 25,8 20,1 8 4 N 1018,6 25 -
15.08.2017 01:00:00 25,8 20,6 8 4 N 1018,5 25 -
15.08.2017 00:00:00 26,0 19,9 8 4 N 1018,5 25 -
14.08.2017 23:00:00 26,6 17,4 8 4 N 1018,3 25 -
14.08.2017 22:00:00 26,8 19,9 9 5 NNE 1018,3 25 -
14.08.2017 21:00:00 27,4 21,0 9 5 NNE 1018,0 25 -
14.08.2017 20:00:00 28,0 20,3 9 5 NNE 1017,9 25 0
14.08.2017 19:00:00 29,0 18,5 11 6 N 1017,3 30 60
14.08.2017 18:00:00 29,0 16,9 15 8 NNO 1017,3 30 60
14.08.2017 17:00:00 29,4 17,6 16 9 NNO 1017,3 25 60
14.08.2017 16:00:00 29,4 15,2 16 9 N 1017,4 25 60
14.08.2017 15:00:00 29,6 15,7 13 7 N 1017,6 25 60
14.08.2017 14:00:00 29,4 16,9 11 6 N 1017,9 25 60
14.08.2017 13:00:00 28,8 19,2 15 8 O 1017,9 25 60
14.08.2017 12:00:00 28,4 18,8 15 8 NNO 1017,7 25 60
14.08.2017 11:00:00 27,4 17,9 13 7 NO 1017,5 25 60
14.08.2017 10:00:00 27,0 19,4 11 6 ESE 1017,3 20 60
14.08.2017 09:00:00 25,8 19,2 13 7 NO 1017,0 20 60
14.08.2017 08:00:00 25,0 18,9 13 7 ONO 1016,5 20 60
14.08.2017 07:00:00 25,0 20,0 15 8 ONO 1016,2 20 6
14.08.2017 06:00:00 24,2 19,1 8 4 N 1016,3 20 -
14.08.2017 05:00:00 24,4 18,8 8 4 NO 1016,2 20 -

tt = Temperatura
td = dewpoint
ff = velocità del vento
dd = direzione del vento
ppp = reduced air pressure
vv = visibility
sd = ore di luce

Stazioni seguenti

WeatherPro
AMSI
MeteoEarth